カタログに戻る

FENGYUN 1C DEB

LostSSO
NORAD 37922·DEBRIS·🇨🇳 China

打ち上げ May 10, 1999 から Taiyuan Satellite Launch Center

Loading…

次のパス (今後24時間)

TLE

古いSource: Space-Track

元期: Jan 17, 2019, 21:25 UTC

1 37922U 99025ENX 19017.89267021  .00000691  00000-0  41274-3 0  9998
2 37922  99.1062  55.2395 0071994 274.9223  84.3730 14.09368946516388

AllMySatでFENGYUN 1C DEBをリアルタイム追跡

Download on the App Store